www.pogodaiklimat.ru

Погода и климат >> Архив погоды >> Аргентина >> Тартагаль


ПОГОДА в Тартагале

  • Прогноз погоды в Тартагале
  • Монитор погоды в Тартагале

АРХИВ ПОГОДЫ в Тартагале

Время (UTC), дата Ветер
(напр.,м/с)
 
Видим.   Явления Облачность Т
(С)
Тd
(С)
f
(%)
Тe
(С)
Тes
(С)
Комфортность P
(гПа)
Po
(гПа)
Тmin
(С)
Tmax
(С)
R
(мм)
R24
(мм)
S
(см)
00 10.01 С 3 10 км 8/0
[Ac As Cs]
+28.0 +23.7 77 +38 +38 очень
душно
999.1 950.1 +24.2 +31.8
06 10.01 штиль 0 10 км 8/0
[Ac As]
+23.8 +22.0 90 +31 +31 очень
душно
1000.6 951.7
09 10.01 С 3 10 км 8/5 1050 м
[Sc Ac As]
+23.3 +21.5 90 +31 +31 очень
душно
1001.0 951.9
12 10.01 СЗ 1 10 км 6/1 900 м
[Cu med, cong Ac As Cs]
+25.3 +22.2 83 +33 +37 очень
душно
1002.6 953.7 +23.2 +28.0
15 10.01 Ю 12
{18}
1000 м сильн. дождь туман 10/10 450 м
[Frnb]
+21.7 +21.4 98 +28 +28 душно 957.0
18 10.01 Ю 12 10 км {гроза} 10/10 600 м
[Frnb]
+21.3 +18.1 82 +26 +26 душно 1009.8 959.8 4
21 10.01 Ю 9 8000 м слаб. дождь 10/10 600 м
[Frnb]
+20.3 +16.7 80 +23 +23 комфорт 1011.2 960.5
00 11.01 Ю 5 3500 м слаб. дождь 10/6 600 м
[Frnb As op]
+18.2 +17.7 97 +18 +18 1014.6 963.9 +18.2 +29.3 2
06 11.01 Ю 6 5000 м слаб. дождь 10/6 450 м
[Frnb As op]
+18.4 +18.1 98 +19 +19 1015.9 965.0 1
09 11.01 Ю 4 5000 м слаб. морось 10/10 450 м
[Frnb]
+17.5 +17.3 99 +17 +17 1016.4 965.4
12 11.01 ЮЗ 4 7000 м осадки на расстоянии {морось} 10/10 360 м
[Frnb]
+18.0 +16.7 92 +18 +18 1017.9 967.0 +17.4 +18.2 0.8
15 11.01 ЮЗ 2 7000 м 10/10 450 м
[Frnb]
+20.9 +17.6 81 +25 +25 комфорт 966.0
18 11.01 Ю 1 10 км 10/10 750 м
[Sc]
+23.5 +16.2 64 +27 +27 душно 1013.8 963.1
21 11.01 Ю 1 10 км 9/9 750 м
[Sc]
+24.8 +18.1 66 +29 +30 душно 1010.7 960.4
00 12.01 штиль 0 10 км 9/0
[Ac As]
+20.8 +17.9 83 +24 +24 комфорт 1012.0 961.1 +18.0 +25.4
06 12.01 штиль 0 10 км 9/9
[Cb calv Ac cuf]
+18.8 +17.2 90 +20 +20 1012.8 962.2
09 12.01 штиль 0 10 км 10/10 600 м
[St]
+15.1 +18.6 100 +15 +15 1012.6 961.9
12 12.01 Ю 2 10 км 10/10 360 м
[Frnb]
+20.4 +19.0 92 +25 +25 комфорт 1014.4 963.8 +18.0 +21.0
15 12.01 СВ 2 10 км 10/10 750 м
[Sc]
+23.6 +17.6 69 +28 +28 душно 962.6
18 12.01 СВ 1 10 км 8/8 900 м
[Sc]
+25.2 +19.1 69 +30 +35 душно 1010.2 960.2
21 12.01 штиль 0 10 км 9/9 900 м
[Sc]
+25.8 +18.4 64 +31 +31 очень
душно
1007.0 957.0
00 13.01 штиль 0 10 км 10/10 900 м
[Sc]
+24.2 +20.9 82 +30 +30 очень
душно
1008.0 958.0 +20.4 +26.5
06 13.01 штиль 0 10 км 6/3 600 м
[Sc Ac As]
+21.8 +20.6 93 +28 +28 душно 1007.4 957.4
09 13.01 штиль 0 10 км 5/1 900 м
[Sc Ac As]
+20.4 +19 +19 1008.2 958.2
12 13.01 штиль 0 10 км 9/4 900 м
[Sc Ac As]
+21.5 +20.0 91 +27 +29 душно 1010.0 960.0 +20.2 +24.2
15 13.01 ЮВ 3 10 км 9/9 750 м
[Sc]
+27.0 +20.5 68 +34 +35 очень
душно
1009.1 959.4
18 13.01 С 5 10 км 8/5 900 м
[Cu med, cong]
+29.8 +20.2 56 +36 +40 очень
душно
1007.2 957.6
21 13.01 штиль 0 10 км 9/3 900 м
[Cu med, cong Ac As]
+30.4 +21.4 59 +38 +40 очень
душно
1005.0 955.3
00 14.01 штиль 0 10 км 8/0
[Ac As]
+25.6 +23.0 86 +34 +34 очень
душно
1007.0 957.0 +21.5 +31.2
06 14.01 штиль 0 10 км 8/0
[Ac As]
+22.6 +21.1 91 +30 +30 очень
душно
1007.5 958.2
09 14.01 штиль 0 10 км ясно +21.2 +19.6 91 +26 +26 душно 1007.6 957.9
12 14.01 Ю 4 10 км 10/10 900 м
[Sc]
+24.6 +21.6 83 +31 +31 очень
душно
1009.8 960.0 +20.8 +25.6
15 14.01 Ю 4 10 км 8/8 900 м
[Cu med, cong]
+27.4 +22.7 76 +36 +39 очень
душно
959.6
18 14.01 штиль 0 10 км {дождь} 6/6 900 м
[Cb calv]
+30.9 +21.9 59 +40 +50 очень
душно
1006.0 956.7 3
21 14.01 СВ 7 10 км 9/9 900 м
[Cu Sc]
+30.0 +21.8 62 +39 +39 очень
душно
1003.9 954.2
00 15.01 штиль 0 10 км в посл. час дождь 9/5 900 м
[Sc Ac As]
+26.0 +23.9 88 +36 +36 очень
душно
1005.9 955.9 +23.2 +31.8
06 15.01 З 3 10 км в посл. час дождь туман 6/3 1050 м
[Cb cap Ac As]
+23.0 +22.1 95 +31 +31 очень
душно
1006.6 957.2 0.9
09 15.01 Ю 5 10 км 10/10 600 м
[Frnb]
+22.2 +21.1 93 +29 +29 очень
душно
1006.2 956.8
12 15.01 Ю 1 10 км в посл. час морось {дождь} 10/10 360 м
[Frnb]
+22.5 +20.5 88 +29 +29 очень
душно
1007.9 958.3 +21.5 +26.0 4
15 15.01 Ю 1 7000 м слаб. морось 10/10 360 м
[Frnb]
+23.4 +21.9 91 +32 +32 очень
душно
958.7
18 15.01 Ю 1 10 км 10/10 750 м
[Sc]
+26.6 +21.2 72 +34 +34 очень
душно
1007.6 957.9 0.0
21 15.01 Ю 2 10 км 9/9 900 м
[Sc]
+26.3 +23.2 83 +35 +36 очень
душно
1006.0 956.4
00 16.01 ЮЗ 4 10 км 10/6 900 м
[Sc Ac As]
+24.0 +21.6 86 +31 +31 очень
душно
1008.6 958.6 +22.5 +27.0
06 16.01 штиль 0 4000 м слаб. дождь 10/6 450 м
[Frnb As op]
+23.2 +22.9 98 +32 +32 очень
душно
1010.0 960.4 4
09 16.01 штиль 0 3000 м морось 10/10 450 м
[Frnb]
+21.2 +20.9 98 +27 +27 душно 1009.9 959.9
12 16.01 ЮЗ 1 8000 м осадки на расстоянии {морось} 10/10 600 м
[Frnb]
+22.6 +21.1 91 +30 +30 очень
душно
1011.2 961.0 +20.6 +24.0 4
15 16.01 Ю 3 10 км в посл. час морось 10/10 600 м
[Frnb]
+23.0 +20.9 88 +30 +30 очень
душно
961.1
18 16.01 СВ 3 10 км 9/6 750 м
[Sc Ac As]
+27.0 +21.7 73 +35 +38 очень
душно
1008.0 958.4 0.0

 

Местоположение метеостанции Тартагаль (Аргентина): широта -22.62 долгота -63.80 высота над уровнем моря 450 м.

В архиве по умолчанию представлена погода в Тартагале за последнюю неделю. Архивные данные за месяц целиком и за предыдущие месяцы, начиная с января 2011 года, Вы можете получить, выбрав интересующий диапазон дат из раскрывающегося списка и нажав кнопку "Ввод!".


*Определитесь, кто Вы:
робот инопланетянин человек

Внимание! Время в таблицах - всемирное. Для получения местного времени необходимо прибавить поправку, которая равна -3 ч.

Смотрите также архив погоды в соседних городах и на ближайших метеорологических станциях:

Погода в Бермехо (Боливия) (55 км)
Погода в Якуибе (Боливия) (76 км)
Погода в Сан-Рамон-де-ла-Нуэва-Оране (Аргентина) (79 км)
Погода в Тарихе (Боливия) (151 км)
Погода в Вилья-Монтесе (Боливия) (157 км)
Погода в Ла-Кьяке (Аргентина) (194 км)
Погода в Сан-Сальвадор-де-Жужуе (Аргентина) (235 км)
Погода в Пратс-Гиле (Парагвай) (236 км)
Погода в Камири (Боливия) (293 км)
Погода в Сальте (Аргентина) (301 км)

Пояснения к столбцам:

Ветер - указаны скорость ветра в м/с - средняя за 10 мин, порывы в срок и между сроками (в фигурных скобках) и направление, откуда дует ветер: С - северный, СВ - северо-восточный, В - восточный, ЮВ - юго-восточный, Ю - южный, ЮЗ - юго-западный, З - западный, СЗ - северо-западный.
Видимость - горизонтальная дальность видимости в метрах или километрах. При видимости от 1 до 10 км при отсутствии осадков обычно наблюдается дымка, при ухудшении видимости до 1 км и менее - туман. В сухую погоду видимость может ухудшаться дымом, пылью или мглою.
Явления - указаны атмосферные явления, наблюдавшиеся в срок или в последний час перед сроком; фигурными скобками обозначены явления, наблюдавшиеся между сроками (за 1-3 часа до срока); квадратными скобками обозначены град или гололедные отложения с указанием их диаметра в мм.
Облачность - указаны через наклонную черту общая и нижняя облачность в баллах и высота нижней границы облаков в метрах; квадратными скобками обозначены формы облаков: Ci - перистые, Cs - перисто-слоистые, Cc - перисто-кучевые, Ac - высококучевые, As - высокослоистые, Sc - слоисто-кучевые, Ns - слоисто-дождевые, Cu - кучевые, Cb - кучево-дождевые. Подробнее классификацию облаков см. в Атласе облаков (PDF).
T - Температура воздуха - температура, измеренная на высоте 2 м над землей.
Td - Температура точки росы - температура, при понижении до которой содержащийся в воздухе водяной пар достигнет насыщения.
f - Относительная влажность воздуха - влажноcть воздуха, измеренная на высоте 2 м над землей.
Te - Эффективная температура - температура, которую ощущает одетый по сезону человек в тени. Характеристика душности погоды. При расчете учитывается влияние влажности воздуха и скорости ветра на теплоощущения человека.
Tes - Эффективная температура на солнце - температура, которую ощущает человек, с поправкой на солнечный нагрев. Характеристика знойности погоды. Зависит от высоты солнца над горизонтом, облачности и скорости ветра. Ночью, в пасмурную погоду, а также при ветре 12 м/с и более поправка равна нулю.
P - Атмосферное давление - приведенное к уровню моря атмосферное давление.
Po - Атмосферное давление - измеренное на уровне метеостанции атмосферное давление.
Tmin - Минимальная температура - минимум температуры воздуха на высоте 2 м над землей.
Tmax - Максимальная температура - максимум температуры воздуха на высоте 2 м над землей.
R - Количество осадков - Количество выпавших осадков за период времени, мм. При наведении курсора мыши на число - период времени, за который выпало указанное количество осадков.
R24 - Количество осадков - Количество выпавших осадков за 24 часа, мм.
S - Снежный покров - Высота снежного покрова, см. При наведении курсора мыши на число - состояние снежного покрова и степень покрытия местности в баллах.